Barnwell, SC

1:02 PM EDT on August 27, 2016 (GMT -0400)
Barnwell County

Weather History for KBNL - January, 2012

Change the Weather History Date:

Thursday, January 12, 2012

  Actual Average (KOGB) Record (KOGB)
Temperature  
Mean Temperature 55 °F 46 °F  
Max Temperature 66 °F 56 °F 80 °F (2013)
Min Temperature 44 °F 35 °F 7 °F (1982)
Degree Days  
Heating Degree Days 10 20  
Month to date heating degree days 240  
Since 1 July heating degree days 1144  
Cooling Degree Days 0 0  
Month to date cooling degree days 0  
Year to date cooling degree days 0  
Growing Degree Days 5 (Base 50)    
Moisture  
Dew Point 44 °F    
Average Humidity 70    
Maximum Humidity 93    
Minimum Humidity 46    
Precipitation  
Precipitation 0.00 in 0.10 in 1.52 in (1964)
Month to date precipitation 1.49  
Year to date precipitation 1.49  
Sea Level Pressure  
Sea Level Pressure 29.73 in    
Wind  
Wind Speed 7 mph (SW)    
Max Wind Speed 18 mph    
Max Gust Speed 26 mph    
Visibility 10 miles    
Events Rain    
T = Trace of Precipitation, MM = Missing Value Source: NWS Daily Summary

Daily Weather History Graph

Daily Weather History Graph

Search for Another Location

Airport or City:

Trip Planner

Search our weather history database for the weather conditions in past years. The results will help you decide how hot, cold, wet, or windy it might be!

Date:

Astronomy

Jan. 12, 2012 Rise Set
Actual Time 7:29 AM EST 5:37 PM EST
Civil Twilight 7:02 AM EST 6:05 PM EST
Nautical Twilight 6:32 AM EST 6:35 PM EST
Astronomical Twilight 6:02 AM EST 7:05 PM EST
Moon 9:27 PM EST (1/12) 9:25 AM EST (1/12)
Length of Visible Light 11h 02m
Length of Day
10h 08m
Waning Gibbous, 87% of the Moon is Illuminated
Jan 12
Waning Gibbous
Jan 16
Last Quarter
Jan 23
New
Jan 30
First Quarter
Feb 7
Full

Hourly Weather History & Observations

Time (EST) Temp. Windchill Dew Point Humidity Pressure Visibility Wind Dir Wind Speed Gust Speed Precip Events Conditions
12:15 AM 48.2 °F - 41.0 °F 76% 29.73 in 10.0 mi WSW 6.9 mph - N/A   Clear
12:35 AM 48.2 °F - 41.0 °F 76% 29.73 in 10.0 mi SW 6.9 mph - N/A   Clear
12:55 AM 48.2 °F - 41.0 °F 76% 29.73 in 10.0 mi WSW 5.8 mph - N/A   Clear
1:15 AM 46.4 °F 44.3 °F 41.0 °F 81% 29.73 in 10.0 mi WSW 4.6 mph - N/A   Clear
1:35 AM 46.4 °F 43.5 °F 42.8 °F 87% 29.74 in 10.0 mi SW 5.8 mph - N/A   Clear
1:55 AM 46.4 °F 43.5 °F 42.8 °F 87% 29.74 in 10.0 mi SW 5.8 mph - N/A   Clear
2:15 AM 46.4 °F 43.5 °F 42.8 °F 87% 29.74 in 10.0 mi SW 5.8 mph - N/A   Clear
2:35 AM 46.4 °F 42.9 °F 42.8 °F 87% 29.74 in 10.0 mi SSW 6.9 mph - N/A   Clear
2:55 AM 46.4 °F 43.5 °F 42.8 °F 87% 29.74 in 10.0 mi SW 5.8 mph - N/A   Scattered Clouds
3:15 AM 46.4 °F 43.5 °F 41.0 °F 81% 29.74 in 10.0 mi SSW 5.8 mph - N/A   Scattered Clouds
3:35 AM 44.6 °F 42.2 °F 41.0 °F 87% 29.74 in 10.0 mi SW 4.6 mph - N/A   Partly Cloudy
3:55 AM 44.6 °F - 41.0 °F 87% 29.73 in 10.0 mi Calm Calm - N/A   Clear
4:15 AM 44.6 °F - 41.0 °F 87% 29.74 in 10.0 mi Calm Calm - N/A   Clear
4:35 AM 44.6 °F 42.2 °F 41.0 °F 87% 29.75 in 10.0 mi SW 4.6 mph - N/A   Clear
4:55 AM 44.6 °F 41.4 °F 41.0 °F 87% 29.75 in 10.0 mi SW 5.8 mph - N/A   Partly Cloudy
5:15 AM 44.6 °F 43.1 °F 42.8 °F 93% 29.75 in 10.0 mi SW 3.5 mph - N/A   Mostly Cloudy
5:35 AM 46.4 °F - 42.8 °F 87% 29.76 in 10.0 mi Calm Calm - N/A   Overcast
5:55 AM 46.4 °F - 42.8 °F 87% 29.76 in 10.0 mi Calm Calm - N/A   Overcast
6:15 AM 46.4 °F - 42.8 °F 87% 29.76 in 10.0 mi Calm Calm - N/A   Overcast
6:35 AM 46.4 °F - 42.8 °F 87% 29.76 in 10.0 mi Calm Calm - N/A   Overcast
6:55 AM 48.2 °F - 42.8 °F 82% 29.77 in 10.0 mi Calm Calm - N/A   Overcast
7:15 AM 48.2 °F - 44.6 °F 87% 29.78 in 10.0 mi Calm Calm - N/A   Overcast
7:55 AM 48.2 °F - 44.6 °F 87% 29.78 in 10.0 mi SSW 5.8 mph - N/A   Overcast
8:15 AM 48.2 °F - 44.6 °F 87% 29.79 in 10.0 mi SSW 6.9 mph - N/A   Overcast
8:35 AM 50.0 °F - 44.6 °F 82% 29.79 in 10.0 mi SW 5.8 mph - N/A   Overcast
8:55 AM 50.0 °F - 44.6 °F 82% 29.80 in 10.0 mi SSW 5.8 mph - N/A   Overcast
9:15 AM 50.0 °F - 44.6 °F 82% 29.82 in 10.0 mi SSW 3.5 mph - N/A   Overcast
9:35 AM 50.0 °F - 44.6 °F 82% 29.82 in 10.0 mi SSW 4.6 mph - N/A   Overcast
10:15 AM 51.8 °F - 44.6 °F 76% 29.82 in 10.0 mi SSW 5.8 mph - N/A   Overcast
10:35 AM 51.8 °F - 46.4 °F 82% 29.82 in 10.0 mi SSW 6.9 mph - N/A   Overcast
10:55 AM 53.6 °F - 46.4 °F 77% 29.81 in 10.0 mi SW 6.9 mph - N/A   Overcast
11:15 AM 55.4 °F - 46.4 °F 72% 29.80 in 10.0 mi SW 12.7 mph 17.3 mph N/A   Overcast
11:35 AM 57.2 °F - 46.4 °F 67% 29.78 in 10.0 mi SW 16.1 mph 20.7 mph N/A   Mostly Cloudy
11:55 AM 57.2 °F - 46.4 °F 67% 29.77 in 10.0 mi SW 12.7 mph - N/A   Partly Cloudy
12:15 PM 59.0 °F - 44.6 °F 59% 29.76 in 10.0 mi WSW 13.8 mph 23.0 mph N/A   Clear
12:35 PM 60.8 °F - 44.6 °F 55% 29.75 in 10.0 mi SW 15.0 mph 20.7 mph N/A   Clear
12:55 PM 60.8 °F - 46.4 °F 59% 29.73 in 10.0 mi SW 9.2 mph 23.0 mph N/A   Clear
1:15 PM 62.6 °F - 46.4 °F 55% 29.71 in 10.0 mi Calm Calm - N/A   Clear
1:35 PM 62.6 °F - 44.6 °F 52% 29.70 in 10.0 mi SSW 12.7 mph 20.7 mph N/A   Clear
2:15 PM 64.4 °F - 44.6 °F 49% 29.70 in 10.0 mi SW 17.3 mph 23.0 mph N/A   Clear
2:35 PM 64.4 °F - 44.6 °F 49% 29.70 in 10.0 mi SW 10.4 mph 20.7 mph N/A   Clear
2:55 PM 66.2 °F - 44.6 °F 46% 29.69 in 10.0 mi SW 17.3 mph 21.9 mph N/A   Clear
3:15 PM 64.4 °F - 44.6 °F 49% 29.69 in 10.0 mi SW 16.1 mph 21.9 mph N/A   Clear
3:35 PM 66.2 °F - 44.6 °F 46% 29.69 in 10.0 mi SW 13.8 mph 20.7 mph N/A   Clear
3:55 PM 66.2 °F - 44.6 °F 46% 29.68 in 10.0 mi SW 13.8 mph 19.6 mph N/A   Clear
4:15 PM 64.4 °F - 44.6 °F 49% 29.67 in 10.0 mi SSW 12.7 mph 21.9 mph N/A   Clear
4:35 PM 64.4 °F - 44.6 °F 49% 29.66 in 10.0 mi South 11.5 mph 19.6 mph N/A   Clear
4:55 PM 64.4 °F - 44.6 °F 49% 29.66 in 10.0 mi South 10.4 mph - N/A   Clear
5:15 PM 62.6 °F - 44.6 °F 52% 29.66 in 10.0 mi South 5.8 mph - N/A   Scattered Clouds
5:35 PM 62.6 °F - 44.6 °F 52% 29.65 in 10.0 mi South 5.8 mph - N/A   Mostly Cloudy
5:55 PM 62.6 °F - 44.6 °F 52% 29.65 in 10.0 mi South 6.9 mph - N/A   Mostly Cloudy
6:15 PM 62.6 °F - 44.6 °F 52% 29.65 in 10.0 mi SSW 6.9 mph - N/A   Mostly Cloudy
6:35 PM 62.6 °F - 46.4 °F 55% 29.64 in 10.0 mi South 9.2 mph - N/A   Mostly Cloudy
6:55 PM 62.6 °F - 46.4 °F 55% 29.64 in 10.0 mi South 8.1 mph - N/A   Mostly Cloudy
7:15 PM 62.6 °F - 46.4 °F 55% 29.64 in 10.0 mi South 6.9 mph - N/A   Light Drizzle
7:35 PM 60.8 °F - 46.4 °F 59% 29.67 in 10.0 mi SW 5.8 mph - N/A   Overcast
7:55 PM 60.8 °F - 48.2 °F 63% 29.67 in 10.0 mi SW 13.8 mph 26.5 mph N/A Rain Light Rain
8:15 PM 59.0 °F - 50.0 °F 72% 29.67 in 9.0 mi SW 6.9 mph - N/A   Overcast
8:35 PM 60.8 °F - 51.8 °F 72% 29.68 in 10.0 mi SW 9.2 mph 17.3 mph N/A   Overcast
9:15 PM 60.8 °F - 50.0 °F 68% 29.70 in 10.0 mi WSW 15.0 mph 24.2 mph N/A   Mostly Cloudy
9:35 PM 57.2 °F - 46.4 °F 67% 29.72 in 10.0 mi West 18.4 mph 26.5 mph N/A   Scattered Clouds
9:55 PM 57.2 °F - 42.8 °F 59% 29.73 in 10.0 mi WSW 16.1 mph 31.1 mph N/A   Partly Cloudy
10:15 PM 55.4 °F - 42.8 °F 63% 29.74 in 10.0 mi WSW 17.3 mph 31.1 mph N/A   Clear
10:35 PM 55.4 °F - 39.2 °F 54% 29.76 in 10.0 mi West 18.4 mph 31.1 mph N/A   Clear
10:55 PM 53.6 °F - 37.4 °F 54% 29.77 in 10.0 mi WSW 17.3 mph 31.1 mph N/A   Clear
11:15 PM 53.6 °F - 35.6 °F 51% 29.79 in 10.0 mi WSW 12.7 mph 24.2 mph N/A   Clear
11:35 PM 51.8 °F - 33.8 °F 50% 29.81 in 10.0 mi West 19.6 mph 28.8 mph N/A   Clear
11:55 PM 48.2 °F - 32.0 °F 54% 29.83 in 10.0 mi West 13.8 mph 21.9 mph N/A   Clear